Regional Weather Roundup
Issued by NWS

Home | Current Version | Previous Version | Graphics & Text | Print | Product List | Glossary Off
Versions: 1 2 3 4 5 6 7 8 9 10 11 12 13 14 15 16 17 18 19 20 21 22 23 24 25 26 27 28 29 30 31 32 33 34 35 36 37 38 39 40 41 42 43 44 45 46 47 48 49 50

000
ASUS43 KDMX 271506
RWRIA

WEATHER ROUNDUP FOR IOWA
NATIONAL WEATHER SERVICE DES MOINES IA
1000 AM CDT THU APR 27 2017

NOTE: "FAIR" INDICATES FEW OR NO CLOUDS BELOW 12,000 FEET WITH NO
SIGNIFICANT WEATHER AND/OR OBSTRUCTIONS TO VISIBILITY.

* - THESE STATIONS ARE NOT NWS STATIONS...THUS NOT UNDER NWS
QUALITY CONTROL.  THEY ALSO DO NOT REPORT WEATHER SUCH
AS PRECIPITATION OR FOG.

IAZ001>003-012>014-020>022-031>034-043>046-271600-
   NORTHWEST IOWA

CITY           SKY/WX    TMP DP  RH WIND       PRES   REMARKS
CARROLL *      CLOUDY    36  30  80 W17G24    29.68R WCI  25
CHEROKEE *     CLOUDY    33  30  90 W8        29.69R WCI  26
DENISON *      CLOUDY    34  30  86 NW15G22   29.71R WCI  24
LE MARS *      CLOUDY    34  28  80 W14       29.71S WCI  24
ORANGE CITY *  CLOUDY    32  30  93 NW15G21   29.68R WCI  22
SHELDON *      CLOUDY    32  28  86 NW15      29.66R WCI  22
SIOUX CITY     CLOUDY    36  28  73 NW16      29.72R WCI  26
SPENCER        CLOUDY    32  26  78 NW15      29.66R WCI  22
STORM LAKE *     N/A     32  28  86 NW20      29.67R WCI  20
$$

IAZ055>058-069>071-079>083-090>094-271600-
   SOUTHWEST IOWA

CITY           SKY/WX    TMP DP  RH WIND       PRES   REMARKS
ATLANTIC *     CLOUDY    37  30  75 NW14      29.71R WCI  29
AUDUBON *      CLOUDY    37  30  75 NW12      29.70R WCI  30
CLARINDA *     CLOUDY    45  32  61 NW13G22   29.74S
COUNCIL BLFS *   N/A     39  32  75 NW10      29.72S WCI  32
CRESTON *      CLOUDY    39  32  75 W17       29.71R WCI  30
HARLAN  *      CLOUDY    37  32  81 NW18      29.73S WCI  27
LAMONI         CLOUDY    42  34  73 W15       29.70R
RED OAK *      CLOUDY    41  32  70 NW14G20   29.72S
SHENANDOAH *   CLOUDY    43  32  65 W10G17    29.73S
$$

IAZ047>049-059>061-072>074-084-271600-
   CENTRAL IOWA

CITY           SKY/WX    TMP DP  RH WIND       PRES   REMARKS
AMES           CLOUDY    36  29  75 NW16G24   29.66R WCI  26
ANKENY *       CLOUDY    36  30  80 W17G23    29.68R WCI  25
BOONE *        CLOUDY    34  28  80 NW17G24   29.66R WCI  23
CHARITON *     CLOUDY    39  32  75 NW15      29.68R WCI  31
DES MOINES     CLOUDY    39  30  70 NW18      29.67R WCI  30
GRINNELL*      CLOUDY    35  30  81 W18       29.66R WCI  25
KNOXVILLE *    CLOUDY    39  30  70 NW17G24   29.65S WCI  30
MARSHALLTOWN   LGT SNOW  36  31  82 W17       29.64R WCI  26
NEWTON *       CLOUDY    36  30  80 W15G22    29.66R WCI  26
PELLA *        CLOUDY    37  31  78 NW12      29.68R WCI  30
PERRY *        CLOUDY    37  30  77 W20G25    29.68R WCI  26
$$

IAZ004>006-015-016-023>025-035-036-271600-
   NORTH CENTRAL IOWA

CITY           SKY/WX    TMP DP  RH WIND       PRES   REMARKS
ALGONA *       CLOUDY    34  27  75 NW16G22   29.63R WCI  23
CLARION *      CLOUDY    34  30  86 NW15      29.64R WCI  24
ESTHERVILLE    CLOUDY    30  26  85 W18       29.63R WCI  18
FORT DODGE *   CLOUDY    34  25  69 W10G18    29.66R WCI  26
MASON CITY     CLOUDY    34  30  85 W18       29.61R FOG     WCI  23
FOREST CITY *  CLOUDY    34  30  86 NW16G22   29.61R FOG     WCI  23
WEBSTER CITY * CLOUDY    34  28  80 W18       29.63R WCI  23
IOWA FALLS *   CLOUDY    35  30  82 W16G24    29.64R WCI  25
$$

IAZ007>011-017>019-026>030-037>042-050>054-066-271600-
   NORTHEAST IOWA

CITY           SKY/WX    TMP DP  RH WIND       PRES   REMARKS
CEDAR RAPIDS   LGT RAIN  36  35  96 W16       29.61R FOG     WCI  26
CHARLES CITY * CLOUDY    36  32  87 W14       29.58R WCI  27
CLINTON *      CLOUDY    40  36  86 W22       29.58R WCI  30
DECORAH *      CLOUDY    36  34  93 W9G24     29.52S WCI  29
DUBUQUE        CLOUDY    38  34  85 W15G25    29.55R WCI  29
MONTICELLO *   CLOUDY    37  34  87 W13G25    29.58R WCI  29
OELWEIN *      CLOUDY    37  34  87 W21       29.58R WCI  27
WATERLOO       CLOUDY    36  31  82 W14       29.60R WCI  27
$$

IAZ064-065-067-068-078-271600-
   EAST CENTRAL IOWA

CITY           SKY/WX    TMP DP  RH WIND       PRES   REMARKS
DAVENPORT      CLOUDY    39  35  86 W21       29.61R WCI  29
IOWA CITY      CLOUDY    40 N/A N/A W16G24    29.64R WCI  31
MT. PLEASANT * CLOUDY    39  34  83 W12G21    29.67R WCI  32
MUSCATINE *    CLOUDY    41  34  75 W14       29.65R
QUAD CITIES    CLOUDY    41  34  76 W20       29.61R
$$

IAZ062-063-075>077-085>089-095>099-271600-
   SOUTHEAST IOWA

CITY           SKY/WX    TMP DP  RH WIND       PRES   REMARKS
BURLINGTON     CLOUDY    41  38  89 W9        29.66R
FAIRFIELD *    CLOUDY    39  36  87 W10G16    29.66R WCI  32
FORT MADISON * CLOUDY    43  39  87 W10G17    29.68R
KEOKUK *       CLOUDY    43  37  81 MISG      29.67R
OSKALOOSA *    CLOUDY    36  34  92 W13G18    29.67R FOG     WCI  27
CENTERVILLE *  CLOUDY    39  34  81 W15       29.69R WCI  31
OTTUMWA        CLOUDY    40  35  83 W14G22    29.67R WCI  32
WASHINGTON *   CLOUDY    39  34  81 W16       29.66R WCI  30
$$

ABBREVIATIONS USED IN REMARKS
   TC - TEMPERATURES IN CELSIUS
  WCI - WIND CHILL INDEX
   HX - HEAT INDEX
  VSB - VISIBILITY
$$





USA.gov is the U.S. government's official web portal to all federal, state and local government web resources and services.